KE0RUZ Weather Reports


Display with metric or nautical units.
time (UTC)temp
F
wind
direction
speed
MPH
gust
MPH
rain 1hr
in
rain 24hr
in
rain mn
in
humidity
%
barometer
mb
20260904013054 86 0 0.0 0.0 0.00 0.00 0.00 57 1013.9
20260904011547 88 0 0.0 0.0 0.00 0.00 0.00 54 1013.7
20260904010044 90 0 0.0 0.0 0.00 0.00 0.00 51 1013.7
20260904004553 92 136 0.0 1.0 0.00 0.00 0.00 49 1013.5
20260904003047 93 124 0.0 3.0 0.00 0.00 0.00 47 1013.3
20260904001546 95 138 1.0 3.0 0.00 0.00 0.00 46 1013.4
20260904000055 96 148 1.0 7.0 0.00 0.00 0.00 44 1013.4
20260903234553 96 166 1.0 6.0 0.00 0.00 0.00 44 1013.3
20260903233054 97 210 3.0 7.0 0.00 0.00 0.00 43 1013.2
20260903231556 97 231 4.0 8.0 0.00 0.00 0.00 42 1013.3
20260903224552 99 176 2.0 8.0 0.00 0.00 0.00 41 1013.2
20260903223103 98 242 2.0 8.0 0.00 0.00 0.00 41 1013.2
20260903221545 99 169 3.0 9.0 0.00 0.00 0.00 40 1013.1
20260903220055 100 186 2.0 11.0 0.00 0.00 0.00 41 1013.3
20260903214553 99 228 4.0 9.0 0.00 0.00 0.00 40 1013.5
20260903213049 99 227 4.0 9.0 0.00 0.00 0.00 40 1013.6
20260903211603 99 107 4.0 12.0 0.00 0.00 0.00 40 1013.6
20260903210054 100 253 4.0 10.0 0.00 0.00 0.00 41 1013.7
20260903204555 99 260 5.0 10.0 0.00 0.00 0.00 41 1014.0
20260903203058 98 156 4.0 11.0 0.00 0.00 0.00 42 1014.0
20260903201602 98 268 4.0 10.0 0.00 0.00 0.00 42 1014.1
20260903200049 98 281 4.0 11.0 0.00 0.00 0.00 42 1014.4
20260903194600 98 248 4.0 8.0 0.00 0.00 0.00 44 1014.4
20260903193105 98 188 3.0 8.0 0.00 0.00 0.00 44 1014.6
20260903191548 98 211 4.0 10.0 0.00 0.00 0.00 43 1015.0
20260903190104 97 259 4.0 10.0 0.00 0.00 0.00 44 1015.0
20260903184600 96 254 5.0 14.0 0.00 0.00 0.00 45 1015.2
20260903183054 96 285 3.0 9.0 0.00 0.00 0.00 46 1015.5
20260903181550 96 107 4.0 8.0 0.00 0.00 0.00 46 1015.5
20260903180059 95 172 5.0 11.0 0.00 0.00 0.00 46 1015.7
20260903174557 94 164 3.0 11.0 0.00 0.00 0.00 48 1016.2
20260903173100 94 223 4.0 11.0 0.00 0.00 0.00 49 1016.4
20260903171559 93 231 4.0 11.0 0.00 0.00 0.00 49 1016.7
20260903170056 93 237 3.0 12.0 0.00 0.00 0.00 52 1016.8
20260903164548 92 321 4.0 12.0 0.00 0.00 0.00 53 1016.9
20260903163055 92 257 6.0 10.0 0.00 0.00 0.00 52 1017.0
20260903161549 92 291 3.0 8.0 0.00 0.00 0.00 53 1017.0
20260903160056 90 300 3.0 10.0 0.00 0.00 0.00 58 1017.1
20260903154556 89 240 4.0 11.0 0.00 0.00 0.00 58 1017.1
20260903153106 89 168 4.0 10.0 0.00 0.00 0.00 58 1017.3
20260903151548 88 252 4.0 10.0 0.00 0.00 0.00 60 1017.2
20260903150047 88 245 5.0 13.0 0.00 0.00 0.00 60 1017.3
20260903144546 86 247 5.0 9.0 0.00 0.00 0.00 63 1017.2
20260903143047 85 238 5.0 12.0 0.00 0.00 0.00 65 1017.4
20260903141554 85 270 3.0 12.0 0.00 0.00 0.00 66 1017.5
20260903140050 84 217 4.0 10.0 0.00 0.00 0.00 67 1017.6
20260903134553 83 214 3.0 7.0 0.00 0.00 0.00 69 1017.6
20260903133051 82 128 1.0 4.0 0.00 0.00 0.00 72 1017.7
20260903131551 80 184 3.0 7.0 0.00 0.00 0.00 75 1017.6
20260903130117 78 149 1.0 4.0 0.00 0.00 0.00 78 1017.7
20260903124555 77 127 2.0 4.0 0.00 0.00 0.00 79 1017.4
20260903123058 76 150 1.0 3.0 0.00 0.00 0.00 79 1017.4
20260903121549 76 210 1.0 5.0 0.00 0.00 0.00 80 1017.5
20260903120044 75 132 0.0 2.0 0.00 0.00 0.00 80 1017.3
20260903114558 75 135 0.0 2.0 0.00 0.00 0.00 80 1017.2
20260903113054 75 152 1.0 2.0 0.00 0.00 0.00 79 1017.0
20260903111549 75 143 1.0 3.0 0.00 0.00 0.00 79 1017.0
20260903110058 76 131 0.0 2.0 0.00 0.00 0.00 79 1017.1
20260903104623 76 0 0.0 2.0 0.00 0.00 0.00 78 1017.0
20260903103050 76 138 1.0 3.0 0.00 0.00 0.00 78 1017.0
20260903101552 76 131 0.0 3.0 0.00 0.00 0.00 77 1016.9
20260903100049 76 134 0.0 1.0 0.00 0.00 0.00 77 1016.9
20260903094606 77 0 0.0 2.0 0.00 0.00 0.00 76 1017.0
20260903093053 77 136 0.0 1.0 0.00 0.00 0.00 76 1016.7
20260903091600 77 136 0.0 1.0 0.00 0.00 0.00 75 1016.7
20260903090057 78 99 0.0 3.0 0.00 0.00 0.00 74 1016.6
20260903084558 78 110 1.0 2.0 0.00 0.00 0.00 74 1016.7
20260903083102 78 124 0.0 1.0 0.00 0.00 0.00 73 1016.6
20260903081620 78 141 0.0 1.0 0.00 0.00 0.00 73 1016.4
20260903080058 79 129 0.0 1.0 0.00 0.00 0.00 71 1016.4
20260903074609 80 208 0.0 1.0 0.00 0.00 0.00 70 1016.3
20260903073127 80 0 1.0 3.0 0.00 0.00 0.00 69 1016.3
20260903071620 81 0 0.0 2.0 0.00 0.00 0.00 68 1016.4
20260903070131 82 139 1.0 3.0 0.00 0.00 0.00 67 1016.3
20260903064556 82 0 1.0 2.0 0.00 0.00 0.00 66 1016.3
20260903063104 82 131 0.0 3.0 0.00 0.00 0.00 65 1016.0
20260903061558 83 0 1.0 5.0 0.00 0.00 0.00 65 1016.2
20260903060131 83 158 1.0 5.0 0.00 0.00 0.00 64 1016.2
20260903054555 83 122 1.0 5.0 0.00 0.00 0.00 64 1016.1
20260903053052 83 181 1.0 5.0 0.00 0.00 0.00 63 1016.0
20260903051606 84 223 2.0 5.0 0.00 0.00 0.00 63 1016.1
20260903050059 84 204 2.0 4.0 0.00 0.00 0.00 63 1015.9
20260903044559 84 154 2.0 7.0 0.00 0.00 0.00 62 1016.0
20260903043048 85 104 1.0 3.0 0.00 0.00 0.00 61 1016.0
20260903041550 85 127 1.0 5.0 0.00 0.00 0.00 60 1015.8
20260903040059 86 196 2.0 5.0 0.00 0.00 0.00 59 1016.1
20260903034553 86 141 2.0 6.0 0.00 0.00 0.00 58 1016.0
20260903033050 86 131 2.0 6.0 0.00 0.00 0.00 57 1015.9
20260903031545 86 117 2.0 5.0 0.00 0.00 0.00 57 1015.9
20260903030054 86 240 2.0 5.0 0.00 0.00 0.00 56 1015.8
20260903024550 85 165 1.0 3.0 0.00 0.00 0.00 57 1015.6
20260903023054 84 0 0.0 2.0 0.00 0.00 0.00 59 1015.5
20260903021605 82 0 0.0 0.0 0.00 0.00 0.00 62 1015.3
20260903014602 83 0 0.0 1.0 0.00 0.00 0.00 61 1015.0